Terminal Aerodrome Forecast
Issued by NWS Mt. Holly, NJ

Home | Current Version | Previous Version | Text Only | Print | Product List | Glossary On
Versions: 1 2 3 4 5 6 7 8 9 10 11 12 13 14 15 16 17 18 19 20 21 22 23 24 25 26 27 28 29 30 31 32 33 34 35 36 37 38 39 40 41 42 43 44 45 46 47 48 49 50
000
FTAK31 PANC 170023 AAA
TAFABE
TAF AMD
PABE 170023Z 1700/1724 10011KT P6SM FEW040 BKN060
      TEMPO 1700/1702 5SM -SN BKN025 OVC035
     FM170600 04007KT P6SM BKN060
     FM171200 VRB02KT 1SM BR OVC012
     FM172100 34006KT 6SM -SN OVC020=

USA.gov is the U.S. government's official web portal to all federal, state and local government web resources and services.